When you browse on this site, cookies collect data to enhance your experience and personalize the content and advertising you see.
Visit our Privacy Policy to learn more. By continuing to use the site, you agree to this use of cookies and data.
  • In Portugal
  • List of Countries
  • For 7 days
  • Water Temperature
  • Satellite Maps
  • Weather Map
  • Weather Widgets
  • user-avatar
    Login

    Hourly Weather Salgotarjan

    Today, 18 July, Thursday

    Time Temperature Precipitation Wind Pressure Humidity
    00:00 +14°C° 0 mm 1 mps 729 mmHg 83%
    01:00 +14°C° 0 mm 1 mps 729 mmHg 83%
    02:00 +14°C° 0 mm 1 mps 729 mmHg 84%
    03:00 +13°C° 0 mm 1 mps 729 mmHg 84%
    04:00 +13°C° 0 mm 1 mps 729 mmHg 85%
    05:00 +15°C° 0 mm 1 mps 729 mmHg 79%
    06:00 +18°C° 0 mm 1 mps 729 mmHg 72%
    07:00 +20°C° 0 mm 1 mps 729 mmHg 61%
    08:00 +22°C° 0 mm 1 mps 730 mmHg 56%
    09:00 +23°C° 0 mm 1 mps 730 mmHg 51%
    10:00 +25°C° 0 mm 1 mps 730 mmHg 46%
    11:00 +25°C° 0 mm 2 mps 730 mmHg 46%
    12:00 +25°C° 0 mm 2 mps 730 mmHg 45%
    13:00 +26°C° 0 mm 2 mps 730 mmHg 45%
    14:00 +25°C° 0.5 mm 2 mps 730 mmHg 49%
    15:00 +25°C° 0.5 mm 2 mps 730 mmHg 53%
    16:00 +25°C° 0.5 mm 1 mps 730 mmHg 57%
    17:00 +23°C° 0.8 mm 1 mps 730 mmHg 65%
    18:00 +21°C° 0.8 mm 1 mps 730 mmHg 73%
    19:00 +20°C° 0.8 mm 1 mps 729 mmHg 80%
    20:00 +17°C° 0 mm 0 mps 730 mmHg 82%
    21:00 +16°C° 0 mm 0 mps 730 mmHg 83%
    22:00 +15°C° 0 mm 0 mps 730 mmHg 85%
    23:00 +14°C° 0 mm 0 mps 730 mmHg 86%

    Tomorrow, 19 July, Friday

    Time Temperature Precipitation Wind Pressure Humidity
    00:00 +14°C° 0 mm 0 mps 730 mmHg 88%
    01:00 +13°C° 0 mm 0 mps 731 mmHg 90%
    02:00 +13°C° 0 mm 0 mps 731 mmHg 91%
    03:00 +13°C° 0 mm 0 mps 731 mmHg 92%
    04:00 +13°C° 0 mm 1 mps 731 mmHg 93%
    05:00 +14°C° 0 mm 0 mps 731 mmHg 89%
    06:00 +15°C° 0 mm 0 mps 731 mmHg 86%
    07:00 +17°C° 0 mm 0 mps 732 mmHg 83%
    08:00 +19°C° 0.1 mm 0 mps 732 mmHg 75%
    09:00 +21°C° 0.1 mm 0 mps 732 mmHg 67%
    10:00 +24°C° 0.1 mm 0 mps 732 mmHg 59%
    11:00 +26°C° 0.7 mm 1 mps 732 mmHg 60%
    12:00 +25°C° 0.7 mm 2 mps 732 mmHg 61%
    13:00 +25°C° 0.7 mm 2 mps 732 mmHg 62%
    14:00 +26°C° 0 mm 2 mps 732 mmHg 56%
    15:00 +27°C° 0 mm 2 mps 732 mmHg 50%
    16:00 +28°C° 0 mm 2 mps 732 mmHg 44%
    17:00 +26°C° 0 mm 1 mps 732 mmHg 51%
    18:00 +24°C° 0 mm 1 mps 732 mmHg 58%
    19:00 +23°C° 0 mm 1 mps 732 mmHg 65%
    20:00 +19°C° 0 mm 0 mps 732 mmHg 67%
    21:00 +18°C° 0 mm 0 mps 732 mmHg 69%
    22:00 +17°C° 0 mm 0 mps 732 mmHg 72%
    23:00 +17°C° 0.1 mm 0 mps 732 mmHg 74%

    Day after tomorrow, 20 July, Saturday

    Time Temperature Precipitation Wind Pressure Humidity
    00:00 +16°C° 0.1 mm 0 mps 732 mmHg 77%
    01:00 +16°C° 0.1 mm 0 mps 732 mmHg 79%
    02:00 +15°C° 0.1 mm 0 mps 732 mmHg 81%
    03:00 +15°C° 0.1 mm 0 mps 733 mmHg 83%
    04:00 +15°C° 0.1 mm 0 mps 733 mmHg 85%
    05:00 +16°C° 0.1 mm 0 mps 733 mmHg 81%
    06:00 +18°C° 0.1 mm 0 mps 733 mmHg 77%
    07:00 +20°C° 0.1 mm 0 mps 734 mmHg 73%
    08:00 +24°C° 0 mm 1 mps 734 mmHg 66%
    09:00 +26°C° 0 mm 1 mps 734 mmHg 58%
    10:00 +28°C° 0 mm 2 mps 735 mmHg 50%
    11:00 +28°C° 0.1 mm 2 mps 734 mmHg 48%
    12:00 +29°C° 0.1 mm 3 mps 734 mmHg 46%
    13:00 +30°C° 0.1 mm 3 mps 734 mmHg 45%
    14:00 +29°C° 0 mm 3 mps 734 mmHg 46%
    15:00 +29°C° 0 mm 2 mps 734 mmHg 48%
    16:00 +29°C° 0 mm 2 mps 734 mmHg 50%
    17:00 +27°C° 0 mm 1 mps 734 mmHg 57%
    18:00 +26°C° 0 mm 1 mps 734 mmHg 63%
    19:00 +22°C° 0 mm 0 mps 734 mmHg 70%
    20:00 +21°C° 0.2 mm 0 mps 734 mmHg 73%
    21:00 +20°C° 0.2 mm 0 mps 734 mmHg 76%
    22:00 +18°C° 0.2 mm 0 mps 734 mmHg 79%
    23:00 +18°C° 0 mm 0 mps 734 mmHg 81%

    21 July, Sunday

    Time Temperature Precipitation Wind Pressure Humidity
    00:00 +18°C° 0 mm 0 mps 734 mmHg 83%
    01:00 +17°C° 0 mm 0 mps 734 mmHg 84%
    02:00 +17°C° 0 mm 0 mps 734 mmHg 85%
    03:00 +17°C° 0 mm 0 mps 734 mmHg 87%
    04:00 +16°C° 0 mm 0 mps 734 mmHg 88%
    05:00 +18°C° 0 mm 0 mps 734 mmHg 83%
    06:00 +20°C° 0 mm 0 mps 734 mmHg 78%
    07:00 +22°C° 0 mm 0 mps 735 mmHg 72%
    08:00 +25°C° 0 mm 1 mps 735 mmHg 65%
    09:00 +27°C° 0 mm 2 mps 735 mmHg 58%
    10:00 +29°C° 0 mm 2 mps 736 mmHg 51%
    11:00 +30°C° 0 mm 3 mps 735 mmHg 48%
    12:00 +31°C° 0 mm 3 mps 735 mmHg 46%
    13:00 +33°C° 0 mm 3 mps 735 mmHg 43%
    14:00 +33°C° 0 mm 3 mps 735 mmHg 44%
    15:00 +33°C° 0 mm 3 mps 735 mmHg 44%
    16:00 +33°C° 0 mm 3 mps 735 mmHg 45%
    17:00 +30°C° 0 mm 3 mps 735 mmHg 52%
    18:00 +28°C° 0 mm 2 mps 735 mmHg 60%
    19:00 +26°C° 0 mm 1 mps 734 mmHg 67%
    20:00 +25°C° 0.3 mm 1 mps 735 mmHg 73%
    21:00 +23°C° 0.3 mm 1 mps 735 mmHg 79%
    22:00 +21°C° 0.3 mm 1 mps 735 mmHg 85%
    23:00 +21°C° 0 mm 1 mps 735 mmHg 86%

    22 July, Monday

    Time Temperature Precipitation Wind Pressure Humidity
    00:00 +20°C° 0 mm 1 mps 735 mmHg 87%
    01:00 +20°C° 0 mm 1 mps 735 mmHg 88%
    02:00 +19°C° 0 mm 1 mps 735 mmHg 90%
    03:00 +19°C° 0 mm 1 mps 735 mmHg 91%
    04:00 +19°C° 0 mm 1 mps 735 mmHg 92%
    05:00 +20°C° 0 mm 1 mps 735 mmHg 88%
    06:00 +22°C° 0 mm 1 mps 736 mmHg 83%
    07:00 +23°C° 0 mm 1 mps 736 mmHg 78%
    08:00 +25°C° 0 mm 1 mps 736 mmHg 67%
    09:00 +27°C° 0 mm 1 mps 737 mmHg 56%
    10:00 +29°C° 0 mm 2 mps 737 mmHg 44%
    11:00 +30°C° 0 mm 2 mps 737 mmHg 41%
    12:00 +30°C° 0 mm 2 mps 737 mmHg 38%
    13:00 +31°C° 0 mm 3 mps 737 mmHg 35%
    14:00 +31°C° 0 mm 3 mps 736 mmHg 36%
    15:00 +31°C° 0 mm 3 mps 736 mmHg 37%
    16:00 +31°C° 0 mm 3 mps 736 mmHg 37%
    17:00 +29°C° 0 mm 2 mps 736 mmHg 46%
    18:00 +27°C° 0 mm 2 mps 736 mmHg 54%
    19:00 +25°C° 0 mm 2 mps 736 mmHg 62%
    20:00 +24°C° 0 mm 2 mps 736 mmHg 65%
    21:00 +23°C° 0 mm 2 mps 736 mmHg 68%
    22:00 +21°C° 0 mm 1 mps 736 mmHg 70%
    23:00 +21°C° 0 mm 1 mps 736 mmHg 71%

    23 July, Tuesday

    Time Temperature Precipitation Wind Pressure Humidity
    00:00 +20°C° 0 mm 1 mps 736 mmHg 72%
    01:00 +20°C° 0 mm 1 mps 736 mmHg 72%
    02:00 +19°C° 0 mm 1 mps 736 mmHg 74%
    03:00 +19°C° 0 mm 1 mps 735 mmHg 76%
    04:00 +18°C° 0 mm 1 mps 735 mmHg 78%
    05:00 +19°C° 0 mm 1 mps 735 mmHg 73%
    06:00 +19°C° 0 mm 0 mps 736 mmHg 69%
    07:00 +21°C° 0 mm 0 mps 736 mmHg 64%
    08:00 +24°C° 0 mm 1 mps 736 mmHg 58%
    09:00 +26°C° 0 mm 1 mps 736 mmHg 52%
    10:00 +28°C° 0 mm 1 mps 736 mmHg 46%
    11:00 +28°C° 0 mm 1 mps 736 mmHg 43%
    12:00 +29°C° 0 mm 1 mps 736 mmHg 39%
    13:00 +30°C° 0 mm 1 mps 735 mmHg 36%
    14:00 +30°C° 0 mm 1 mps 735 mmHg 37%
    15:00 +29°C° 0 mm 1 mps 735 mmHg 37%
    16:00 +29°C° 0 mm 1 mps 734 mmHg 38%
    17:00 +28°C° 0 mm 1 mps 734 mmHg 45%
    18:00 +26°C° 0 mm 2 mps 734 mmHg 52%
    19:00 +24°C° 0 mm 2 mps 734 mmHg 59%
    20:00 +23°C° 0 mm 2 mps 734 mmHg 61%
    21:00 +20°C° 0 mm 2 mps 734 mmHg 62%
    22:00 +19°C° 0 mm 2 mps 734 mmHg 64%
    23:00 +19°C° 0 mm 1 mps 734 mmHg 67%
    Show more